Mobile, AL

2:37 AM CDT on August 24, 2019 (GMT -0500)
Mobile Regional

Weather History for KMOB - July, 2019

Change the Weather History Date:

Friday, July 19, 2019

  Actual Average Record
Temperature  
Mean Temperature 85 °F 82 °F  
Max Temperature 93 °F 91 °F 98 °F (2000)
Min Temperature 76 °F 73 °F 65 °F (1923)
Cooling Degree Days 20 17  
Month to date cooling degree days 376 321  
Year to date cooling degree days 1508 1210  
Since 1 June cooling degree days 884 765  
Growing Degree Days 35 (Base 50)    
Moisture  
Dew Point 75 °F    
Average Humidity 78    
Maximum Humidity 100    
Minimum Humidity 56    
Precipitation  
Precipitation T in 0.24 in 10.07 in (1997)
Month to date precipitation 5.18 4.42  
Year to date precipitation 33.12 37.37  
Sea Level Pressure  
Sea Level Pressure 30.07 in    
Wind  
Wind Speed 5 mph (SSE)    
Max Wind Speed 17 mph    
Max Gust Speed 20 mph    
Visibility 9 miles    
Events Thunderstorm    
T = Trace of Precipitation, MM = Missing Value Source: NWS Daily Summary

Daily Weather History Graph

Daily Weather History Graph

Search for Another Location

Airport or City:

Astronomy

Jul. 19, 2019 Rise Set
Actual Time 6:02 AM CDT 7:55 PM CDT
Civil Twilight 5:35 AM CDT 8:22 PM CDT
Nautical Twilight 5:03 AM CDT 8:54 PM CDT
Astronomical Twilight 4:28 AM CDT 9:29 PM CDT
Moon 10:01 PM CDT (7/19) 8:23 AM CDT (7/19)
Length of Visible Light 14h 46m
Length of Day
13h 52m
Waning Gibbous, 93% of the Moon is Illuminated
Jul 19
Waning Gibbous
Jul 24
Last Quarter
Jul 31
New
Aug 7
First Quarter
Aug 15
Full

Hourly Weather History & Observations

Time (CDT) Temp. Heat Index Dew Point Humidity Pressure Visibility Wind Dir Wind Speed Gust Speed Precip Events Conditions
12:56 AM 79.0 °F - 77.0 °F 94% 30.05 in 10.0 mi Calm Calm - N/A   Clear
1:56 AM 79.0 °F - 77.0 °F 94% 30.03 in 10.0 mi Calm Calm - N/A   Clear
2:56 AM 79.0 °F - 77.0 °F 94% 30.02 in 10.0 mi SW 3.5 mph - N/A   Clear
3:56 AM 78.1 °F - 77.0 °F 96% 30.02 in 10.0 mi SW 3.5 mph - N/A   Clear
4:56 AM 77.0 °F - 75.9 °F 96% 30.03 in 10.0 mi Calm Calm - N/A   Clear
5:56 AM 77.0 °F - 75.9 °F 96% 30.05 in 6.0 mi Calm Calm - N/A   Scattered Clouds
6:56 AM 78.8 °F - 78.8 °F 100% 30.07 in 7.0 mi West 3.5 mph - N/A   Scattered Clouds
7:56 AM 82.9 °F 92.8 °F 78.1 °F 85% 30.10 in 10.0 mi NW 4.6 mph - N/A   Partly Cloudy
8:56 AM 86.0 °F 98.3 °F 78.1 °F 77% 30.11 in 10.0 mi Variable 5.8 mph - N/A   Partly Cloudy
9:56 AM 88.0 °F 100.2 °F 77.0 °F 70% 30.11 in 10.0 mi Variable 3.5 mph - N/A   Mostly Cloudy
10:37 AM 90.0 °F 102.5 °F 77.0 °F 65% 30.12 in 7.0 mi Variable 3.5 mph - N/A   Mostly Cloudy
10:56 AM 88.0 °F 98.5 °F 75.9 °F 67% 30.12 in 7.0 mi WSW 4.6 mph - N/A   Mostly Cloudy
11:56 AM 91.0 °F 102.9 °F 75.9 °F 61% 30.10 in 7.0 mi Variable 5.8 mph - N/A   Mostly Cloudy
12:56 PM 89.1 °F 100.2 °F 75.9 °F 65% 30.08 in 7.0 mi SSE 5.8 mph - N/A   Mostly Cloudy
1:56 PM 93.0 °F 106.7 °F 77.0 °F 59% 30.06 in 10.0 mi SSW 12.7 mph - N/A   Mostly Cloudy
2:56 PM 91.9 °F 103.2 °F 75.0 °F 58% 30.04 in 10.0 mi SW 10.4 mph - N/A   Mostly Cloudy
3:56 PM 91.9 °F 101.3 °F 73.9 °F 55% 30.03 in 10.0 mi SSW 11.5 mph 19.6 mph N/A   Scattered Clouds
4:56 PM 89.1 °F 100.2 °F 75.9 °F 65% 30.02 in 10.0 mi South 9.2 mph - N/A   Scattered Clouds
5:36 PM 88.0 °F 98.5 °F 75.9 °F 67% 30.06 in 10.0 mi South 12.7 mph - N/A Thunderstorm Unknown
5:51 PM 87.8 °F 97.6 °F 75.2 °F 66% 30.05 in 10.0 mi SSW 8.1 mph - N/A   Unknown
5:56 PM 87.1 °F 97.3 °F 75.9 °F 69% 30.04 in 10.0 mi South 9.2 mph - N/A   Mostly Cloudy
6:15 PM 86.0 °F 95.1 °F 75.0 °F 70% 30.07 in 7.0 mi Calm Calm - N/A Thunderstorm Mostly Cloudy
6:35 PM 82.0 °F 87.4 °F 73.0 °F 74% 30.08 in 7.0 mi NE 5.8 mph - N/A   Mostly Cloudy
6:42 PM 82.0 °F 87.4 °F 73.0 °F 74% 30.08 in 7.0 mi NE 5.8 mph - N/A Thunderstorm Mostly Cloudy
6:56 PM 81.0 °F 85.8 °F 73.0 °F 77% 30.08 in 7.0 mi NE 5.8 mph - N/A Thunderstorm Mostly Cloudy
7:03 PM 80.1 °F 84.2 °F 73.0 °F 79% 30.09 in 10.0 mi NE 8.1 mph - N/A Thunderstorm Mostly Cloudy
7:26 PM 80.1 °F 84.2 °F 73.0 °F 79% 30.08 in 10.0 mi ENE 5.8 mph - N/A   Mostly Cloudy
7:56 PM 79.0 °F - 73.0 °F 82% 30.07 in 10.0 mi NNE 4.6 mph - N/A   Mostly Cloudy
8:56 PM 78.1 °F - 72.0 °F 81% 30.06 in 10.0 mi East 3.5 mph - N/A   Mostly Cloudy
9:03 PM 79.0 °F - 72.0 °F 79% 30.07 in 10.0 mi SE 4.6 mph - N/A   Mostly Cloudy
9:56 PM 78.1 °F - 73.0 °F 84% 30.04 in 10.0 mi SSE 5.8 mph - 0.00 in   Mostly Cloudy
10:56 PM 78.1 °F - 73.0 °F 84% 30.06 in 10.0 mi East 3.5 mph - N/A   Mostly Cloudy
11:56 PM 77.0 °F - 73.9 °F 90% 30.06 in 10.0 mi Calm Calm - N/A   Clear